Location: Eastchurch
(51.4000°N, 0.8667°E)
Time: 00:03:19
(UTC+00:00)

NOSS 3-4 (C) - Pass Details

Date: 19 January 2026
Orbit: 773 x 1438 km, 63.4° (Epoch: 26 December)

Event Time Altitude Azimuth Distance (km) Brightness Sun altitude
Rises 17:48:40 0° 229° (SW) 3,254 7.6 -12.9°
Reaches altitude 10° 17:50:58 10° 231° (SW) 2,355 6.7 -13.2°
Maximum altitude 17:56:20 76° 317° (NW) 875 3.3 -14.0°
Enters shadow 18:01:20 15° 43° (NE) 2,251 4.9 -14.8°
